WetterOnline ( https://www.wetteronline.de )

Wetter aktuell Bergen

Aktuelles Wetter: Salzburg Flughafen (450m)

6-stündlich | Neueste Meldungen
Ortszeit Temperatur Wetter
Do, 28.01. 1:00 -0.5° C leichter Schneefall
Mi, 27.01. 19:00 -0.0° C bedeckt
Mi, 27.01. 13:00 0.8° C wolkig
Mi, 27.01. 7:00 -2.0° C bewölkt
Mi, 27.01. 1:00 -1.0° C leichte Schneeschauer
Di, 26.01. 19:00 -0.6° C leichter Schneefall
Di, 26.01. 13:00 -1.0° C bewölkt
Di, 26.01. 7:00 -0.8° C bedeckt
Ortszeit Temperatur Wetter
Do, 28.01. 3:20 -1° C leichter Schneefall
Do, 28.01. 3:00 -0.7° C leichter Schneefall
Do, 28.01. 2:50 -1° C leichter Schneefall
Do, 28.01. 2:20 -1° C gefrierender Regen
Do, 28.01. 2:00 -0.8° C leichter Schneefall
Do, 28.01. 1:50 -1° C leichter Schneefall
Do, 28.01. 1:20 -1° C leichter Schneefall
Do, 28.01. 1:00 -0.5° C leichter Schneefall
Do, 28.01. 0:20 -1° C leichter Schneefall
Do, 28.01. 0:00 -0.6° C leichter Schneefall
Ortszeit Relative Feuchte Sichtweite
Do, 28.01. 1:00 93% 26 km
Mi, 27.01. 19:00 84% 45 km
Mi, 27.01. 13:00 68% 60 km
Mi, 27.01. 7:00 88% 45 km
Mi, 27.01. 1:00 90% 6 km
Di, 26.01. 19:00 83% 9 km
Di, 26.01. 13:00 88% 55 km
Di, 26.01. 7:00 84% 16 km
Ortszeit Relative Feuchte Sichtweite
Do, 28.01. 3:20 100% 5.0 km
Do, 28.01. 3:00 96% 4.3 km
Do, 28.01. 2:50 100% 4.4 km
Do, 28.01. 2:20 100% 6 km
Do, 28.01. 2:00 96% 2.3 km
Do, 28.01. 1:50 100% 3.5 km
Do, 28.01. 1:20 100% 5.0 km
Do, 28.01. 1:00 93% 26 km
Do, 28.01. 0:20 100% >10 km
Do, 28.01. 0:00 95% 7 km
Ortszeit Niederschlagsmenge Niederschlagsart
Do, 28.01. 1:00 1 l/m2 in 6 Std. -
Mi, 27.01. 19:00 0.1 l/m2 in 12 Std. -
Mi, 27.01. 13:00 keine Meldung -
Mi, 27.01. 7:00 1 l/m2 in 12 Std. -
Mi, 27.01. 1:00 0.8 l/m2 in 6 Std. -
Di, 26.01. 19:00 3 l/m2 in 12 Std. -
Di, 26.01. 13:00 2 l/m2 in 6 Std. -
Di, 26.01. 7:00 11 l/m2 in 12 Std. -
Ortszeit Niederschlagsmenge Niederschlagsart
Do, 28.01. 3:20 keine Meldung -
Do, 28.01. 3:00 0.2 l/m2 in 1 Std. -
Do, 28.01. 2:50 keine Meldung -
Do, 28.01. 2:20 keine Meldung -
Do, 28.01. 2:00 0.2 l/m2 in 1 Std. -
Do, 28.01. 1:50 keine Meldung -
Do, 28.01. 1:20 keine Meldung -
Do, 28.01. 1:00 0.1 l/m2 in 1 Std. -
Do, 28.01. 0:20 keine Meldung -
Do, 28.01. 0:00 0.1 l/m2 in 1 Std. -
Ortszeit Stärke Spitze Richtung
km/h Bft. km/h Grad Sektor
Do, 28.01. 1:00 11 2 - 150° SO
Mi, 27.01. 19:00 7 2 - - -
Mi, 27.01. 13:00 14 3 - 150° SO
Mi, 27.01. 7:00 4 1 - - -
Mi, 27.01. 1:00 11 2 50 - -
Di, 26.01. 19:00 11 2 54 260° W
Di, 26.01. 13:00 11 2 - 240° SW
Di, 26.01. 7:00 11 2 - - -
Ortszeit Stärke Spitze Richtung
km/h Bft. km/h Grad Sektor
Do, 28.01. 3:20 15 3 - 160° S
Do, 28.01. 3:00 14 3 - 160° S
Do, 28.01. 2:50 13 3 - 160° S
Do, 28.01. 2:20 15 3 - 150° SO
Do, 28.01. 2:00 14 3 - 160° S
Do, 28.01. 1:50 13 3 - 160° S
Do, 28.01. 1:20 15 3 - 150° SO
Do, 28.01. 1:00 11 2 - 150° SO
Do, 28.01. 0:20 17 3 - 160° S
Do, 28.01. 0:00 11 2 - 150° SO
Ortszeit Untergrenze Bedeckung Gattung
total tief tief mittel hoch
Do, 28.01. 1:00 300 m 8/8 5/8 - - -
Mi, 27.01. 19:00 600 m 8/8 6/8 Sc - -
Mi, 27.01. 13:00 4200 m 7/8 3/8 - Ac Ci
Mi, 27.01. 7:00 840 m 7/8 5/8 Sc - -
Mi, 27.01. 1:00 780 m 8/8 5/8 - - -
Di, 26.01. 19:00 300 m 8/8 5/8 Sc - -
Di, 26.01. 13:00 150 m 7/8 6/8 St - -
Di, 26.01. 7:00 300 m 8/8 6/8 St - -
Ortszeit Bedeckungsgrad in Achtel und Wolkenuntergrenze
Do, 28.01. 3:20 1-2(150m) 5-7(390m)
Do, 28.01. 3:00 1(270m) 3(360m) 5(570m)
Do, 28.01. 2:50 1-2(270m) 3-4(360m) 5-7(570m)
Do, 28.01. 2:20 1-2(120m) 3-4(390m) 5-7(600m)
Do, 28.01. 2:00 1(90m) 5(360m)
Do, 28.01. 1:50 1-2(90m) 5-7(360m)
Do, 28.01. 1:20 1-2(210m) 3-4(360m) 5-7(600m)
Do, 28.01. 1:00 1(300m) 3(450m) 5(660m)
Do, 28.01. 0:20 1-2(120m) 3-4(480m) 5-7(660m)
Do, 28.01. 0:00 1(420m) 3(510m) 5(720m)
Ortszeit Luftdruck NN (hPa) Tendenz (hPa in 3 Std.)
Do, 28.01. 1:00 1017 0,0
Mi, 27.01. 19:00 1017 - 0,3
Mi, 27.01. 13:00 1018 - 1,5
Mi, 27.01. 7:00 1021 - 0,3
Mi, 27.01. 1:00 1022 + 0,3
Di, 26.01. 19:00 1021 + 1,5
Di, 26.01. 13:00 1019 + 0,5
Di, 26.01. 7:00 1017 + 2,1
Ortszeit Luftdruck NN (hPa) Tendenz (hPa in 3 Std.)
Do, 28.01. 3:20 1014 keine Meldung
Do, 28.01. 3:00 1016 - 0,6
Do, 28.01. 2:50 1014 keine Meldung
Do, 28.01. 2:20 1014 keine Meldung
Do, 28.01. 2:00 1017 - 0,3
Do, 28.01. 1:50 1014 keine Meldung
Do, 28.01. 1:20 1014 keine Meldung
Do, 28.01. 1:00 1017 0,0
Do, 28.01. 0:20 1014 keine Meldung
Do, 28.01. 0:00 1017 + 0,2
Ortszeit Schneehöhe (cm)
Do, 28.01. 1:00 15
Mi, 27.01. 19:00 -
Mi, 27.01. 13:00 -
Mi, 27.01. 7:00 17
Mi, 27.01. 1:00 17
Di, 26.01. 19:00 -
Di, 26.01. 13:00 -
Di, 26.01. 7:00 23
Ortszeit Schneehöhe (cm)
Do, 28.01. 3:20 -
Do, 28.01. 3:00 15
Do, 28.01. 2:50 -
Do, 28.01. 2:20 -
Do, 28.01. 2:00 15
Do, 28.01. 1:50 -
Do, 28.01. 1:20 -
Do, 28.01. 1:00 15
Do, 28.01. 0:20 -
Do, 28.01. 0:00 15
Link zu dieser Seite / Seite empfehlen

Das Wetter in ...